| time (UTC) | temp F | wind direction | speed knots | gust knots | rain 1hr in | rain 24hr in | rain mn in | humidity % | barometer mb |
| 20260505210952 | 82 | 196 | 5.2 | 14.8 | 0.00 | 0.00 | 0.00 | 32 | 1011.4 |
| 20260505201007 | 84 | 196 | 8.7 | 10.4 | 0.00 | 0.00 | 0.00 | 32 | 1011.3 |
| 20260505191005 | 85 | 217 | 4.3 | 10.4 | 0.00 | 0.00 | 0.00 | 31 | 1012.0 |
| 20260505180952 | 84 | 190 | 12.2 | 12.2 | 0.00 | 0.00 | 0.00 | 34 | 1012.9 |
| 20260505170949 | 83 | 215 | 2.6 | 5.2 | 0.00 | 0.00 | 0.00 | 41 | 1013.4 |
| 20260505160954 | 80 | 210 | 3.5 | 3.5 | 0.00 | 0.00 | 0.00 | 45 | 1014.1 |
| 20260505150957 | 77 | 182 | 5.2 | 7.8 | 0.00 | 0.00 | 0.00 | 49 | 1014.4 |
| 20260505120957 | 62 | 205 | 4.3 | 4.3 | 0.00 | 0.00 | 0.00 | 69 | 1014.3 |
| 20260505111006 | 60 | 206 | 2.6 | 7.0 | 0.00 | 0.00 | 0.00 | 74 | 1013.6 |
| 20260505100954 | 59 | 165 | 6.1 | 6.1 | 0.00 | 0.00 | 0.00 | 73 | 1013.4 |
| 20260505091003 | 61 | 184 | 3.5 | 8.7 | 0.00 | 0.00 | 0.00 | 70 | 1013.2 |
| 20260505080953 | 62 | 171 | 7.8 | 7.8 | 0.00 | 0.00 | 0.00 | 67 | 1013.0 |
| 20260505071004 | 63 | 173 | 5.2 | 5.2 | 0.00 | 0.00 | 0.00 | 63 | 1012.9 |
| 20260505060950 | 63 | 188 | 6.1 | 8.7 | 0.00 | 0.00 | 0.00 | 59 | 1012.7 |
| 20260505050954 | 65 | 198 | 2.6 | 6.1 | 0.00 | 0.00 | 0.00 | 54 | 1012.7 |
| 20260505041004 | 65 | 192 | 5.2 | 5.2 | 0.00 | 0.00 | 0.00 | 54 | 1012.4 |
| 20260505031001 | 65 | 176 | 4.3 | 4.3 | 0.00 | 0.00 | 0.00 | 53 | 1012.3 |
| 20260505020959 | 67 | 193 | 3.5 | 3.5 | 0.00 | 0.00 | 0.00 | 50 | 1012.2 |
| 20260505010953 | 69 | 169 | 4.3 | 4.3 | 0.00 | 0.00 | 0.00 | 47 | 1011.6 |
| 20260505000952 | 70 | 140 | 3.5 | 3.5 | 0.00 | 0.00 | 0.00 | 44 | 1011.6 |
| 20260504230952 | 73 | 199 | 2.6 | 5.2 | 0.00 | 0.00 | 0.00 | 39 | 1011.2 |
| 20260504221006 | 76 | 196 | 12.2 | 12.2 | 0.00 | 0.00 | 0.00 | 35 | 1011.2 |